| time (UTC) | temp F | wind direction | speed MPH | gust MPH | rain 1hr in | rain 24hr in | rain mn in | humidity % | barometer mb |
| 20260508012418 | 71 | 277 | 4.0 | 9.0 | 0.00 | 0.00 | 0.00 | 58 | |
| 20260508012217 | 72 | 265 | 6.0 | 8.0 | 0.00 | 0.00 | 0.00 | 57 | |
| 20260508012015 | 72 | 260 | 5.0 | 8.0 | 0.00 | 0.00 | 0.00 | 58 | |
| 20260508011813 | 72 | 293 | 4.0 | 8.0 | 0.00 | 0.00 | 0.00 | 58 | |
| 20260508011611 | 72 | 277 | 4.0 | 8.0 | 0.00 | 0.00 | 0.00 | 58 | |
| 20260508011409 | 71 | 279 | 7.0 | 8.0 | 0.00 | 0.00 | 0.00 | 58 | |
| 20260508011207 | 71 | 282 | 5.0 | 10.0 | 0.00 | 0.00 | 0.00 | 57 | |
| 20260508011004 | 72 | 285 | 4.0 | 10.0 | 0.00 | 0.00 | 0.00 | 57 | |
| 20260508010601 | 71 | 278 | 5.0 | 10.0 | 0.00 | 0.00 | 0.00 | 58 | |
| 20260508010359 | 71 | 293 | 5.0 | 10.0 | 0.00 | 0.00 | 0.00 | 58 | |
| 20260508010157 | 71 | 286 | 4.0 | 10.0 | 0.00 | 0.00 | 0.00 | 58 | |
| 20260508005955 | 71 | 279 | 6.0 | 10.0 | 0.00 | 0.00 | 0.00 | 58 | |
| 20260508005551 | 72 | 289 | 6.0 | 11.0 | 0.00 | 0.00 | 0.00 | 56 | |
| 20260508004945 | 72 | 267 | 6.0 | 10.0 | 0.00 | 0.00 | 0.00 | 57 | |
| 20260508004743 | 72 | 261 | 8.0 | 11.0 | 0.00 | 0.00 | 0.00 | 58 | |
| 20260508004542 | 71 | 279 | 7.0 | 11.0 | 0.00 | 0.00 | 0.00 | 57 | |
| 20260508004339 | 72 | 303 | 3.0 | 11.0 | 0.00 | 0.00 | 0.00 | 56 | |
| 20260508004138 | 72 | 258 | 8.0 | 11.0 | 0.00 | 0.00 | 0.00 | 56 | |
| 20260508003935 | 72 | 267 | 4.0 | 11.0 | 0.00 | 0.00 | 0.00 | 55 | |
| 20260508003734 | 72 | 261 | 6.0 | 11.0 | 0.00 | 0.00 | 0.00 | 55 | |
| 20260508003531 | 72 | 243 | 7.0 | 11.0 | 0.00 | 0.00 | 0.00 | 56 | |
| 20260508003330 | 72 | 258 | 8.0 | 11.0 | 0.00 | 0.00 | 0.00 | 56 | |
| 20260508002924 | 73 | 288 | 6.0 | 12.0 | 0.00 | 0.00 | 0.00 | 55 | |
| 20260508002722 | 73 | 279 | 8.0 | 11.0 | 0.00 | 0.00 | 0.00 | 55 | |
| 20260508002320 | 73 | 267 | 7.0 | 13.0 | 0.00 | 0.00 | 0.00 | 55 | |
| 20260508002117 | 73 | 264 | 9.0 | 13.0 | 0.00 | 0.00 | 0.00 | 55 | |
| 20260508001916 | 72 | 270 | 9.0 | 13.0 | 0.00 | 0.00 | 0.00 | 54 | |
| 20260508001714 | 73 | 274 | 7.0 | 12.0 | 0.00 | 0.00 | 0.00 | 53 | |
| 20260508001511 | 73 | 302 | 2.0 | 12.0 | 0.00 | 0.00 | 0.00 | 53 | |
| 20260508001108 | 74 | 274 | 9.0 | 12.0 | 0.00 | 0.00 | 0.00 | 53 | |
| 20260508000300 | 74 | 272 | 7.0 | 12.0 | 0.00 | 0.00 | 0.00 | 53 | |
| 20260508000056 | 73 | 286 | 7.0 | 12.0 | 0.00 | 0.00 | 0.00 | 52 | |
| 20260507235854 | 73 | 271 | 8.0 | 12.0 | 0.00 | 0.00 | 0.00 | 53 | |
| 20260507235654 | 73 | 264 | 12.0 | 13.0 | 0.00 | 0.00 | 0.00 | 52 | |
| 20260507235251 | 74 | 278 | 7.0 | 11.0 | 0.00 | 0.00 | 0.00 | 52 | |
| 20260507235049 | 74 | 282 | 9.0 | 11.0 | 0.00 | 0.00 | 0.00 | 53 | |
| 20260507234846 | 73 | 271 | 9.0 | 11.0 | 0.00 | 0.00 | 0.00 | 52 | |
| 20260507234645 | 74 | 265 | 10.0 | 13.0 | 0.00 | 0.00 | 0.00 | 52 | |
| 20260507234443 | 74 | 261 | 5.0 | 13.0 | 0.00 | 0.00 | 0.00 | 52 | |
| 20260507234240 | 74 | 265 | 7.0 | 13.0 | 0.00 | 0.00 | 0.00 | 52 | |
| 20260507233838 | 74 | 264 | 10.0 | 13.0 | 0.00 | 0.00 | 0.00 | 53 | |
| 20260507233635 | 74 | 261 | 11.0 | 13.0 | 0.00 | 0.00 | 0.00 | 53 | |
| 20260507233432 | 74 | 262 | 12.0 | 13.0 | 0.00 | 0.00 | 0.00 | 51 | |
| 20260507233029 | 74 | 265 | 9.0 | 13.0 | 0.00 | 0.00 | 0.00 | 52 | |
| 20260507232836 | 74 | 262 | 10.0 | 13.0 | 0.00 | 0.00 | 0.00 | 52 | |
| 20260507232827 | 74 | 262 | 10.0 | 13.0 | 0.00 | 0.00 | 0.00 | 52 | |
| 20260507232625 | 74 | 261 | 10.0 | 14.0 | 0.00 | 0.00 | 0.00 | 51 | |
| 20260507232221 | 74 | 298 | 8.0 | 12.0 | 0.00 | 0.00 | 0.00 | 52 | |
| 20260507232019 | 74 | 282 | 9.0 | 12.0 | 0.00 | 0.00 | 0.00 | 52 | |
| 20260507231817 | 73 | 268 | 6.0 | 13.0 | 0.00 | 0.00 | 0.00 | 52 | |
| 20260507231413 | 74 | 272 | 5.0 | 13.0 | 0.00 | 0.00 | 0.00 | 52 | |
| 20260507231009 | 74 | 254 | 10.0 | 13.0 | 0.00 | 0.00 | 0.00 | 53 | |
| 20260507230806 | 74 | 258 | 10.0 | 13.0 | 0.00 | 0.00 | 0.00 | 52 | |
| 20260507230403 | 73 | 248 | 8.0 | 13.0 | 0.00 | 0.00 | 0.00 | 52 | |
| 20260507230000 | 74 | 264 | 7.0 | 15.0 | 0.00 | 0.00 | 0.00 | 53 | |
| 20260507225758 | 73 | 285 | 9.0 | 14.0 | 0.00 | 0.00 | 0.00 | 52 | |
| 20260507225556 | 73 | 261 | 11.0 | 14.0 | 0.00 | 0.00 | 0.00 | 53 | |
| 20260507225354 | 73 | 282 | 12.0 | 14.0 | 0.00 | 0.00 | 0.00 | 53 | |
| 20260507225152 | 74 | 277 | 9.0 | 14.0 | 0.00 | 0.00 | 0.00 | 51 | |
| 20260507224950 | 74 | 278 | 7.0 | 14.0 | 0.00 | 0.00 | 0.00 | 51 | |
| 20260507224748 | 74 | 277 | 7.0 | 13.0 | 0.00 | 0.00 | 0.00 | 51 | |
| 20260507224142 | 74 | 248 | 10.0 | 15.0 | 0.00 | 0.00 | 0.00 | 52 | |
| 20260507223536 | 74 | 262 | 9.0 | 14.0 | 0.00 | 0.00 | 0.00 | 50 | |
| 20260507223334 | 75 | 268 | 8.0 | 14.0 | 0.00 | 0.00 | 0.00 | 50 | |
| 20260507222930 | 75 | 258 | 10.0 | 13.0 | 0.00 | 0.00 | 0.00 | 51 | |
| 20260507222728 | 74 | 279 | 3.0 | 11.0 | 0.00 | 0.00 | 0.00 | 51 | |
| 20260507222527 | 75 | 275 | 8.0 | 11.0 | 0.00 | 0.00 | 0.00 | 51 | |
| 20260507222123 | 75 | 264 | 7.0 | 16.0 | 0.00 | 0.00 | 0.00 | 50 | |
| 20260507221921 | 74 | 275 | 5.0 | 16.0 | 0.00 | 0.00 | 0.00 | 51 | |
| 20260507221719 | 74 | 261 | 9.0 | 15.0 | 0.00 | 0.00 | 0.00 | 52 | |
| 20260507221516 | 74 | 295 | 13.0 | 15.0 | 0.00 | 0.00 | 0.00 | 51 | |
| 20260507221315 | 74 | 282 | 10.0 | 16.0 | 0.00 | 0.00 | 0.00 | 51 | |
| 20260507220709 | 74 | 271 | 9.0 | 15.0 | 0.00 | 0.00 | 0.00 | 52 | |
| 20260507220505 | 74 | 260 | 12.0 | 15.0 | 0.00 | 0.00 | 0.00 | 51 | |
| 20260507220304 | 75 | 257 | 9.0 | 15.0 | 0.00 | 0.00 | 0.00 | 51 | |
| 20260507215901 | 75 | 240 | 11.0 | 15.0 | 0.00 | 0.00 | 0.00 | 51 | |
| 20260507215659 | 74 | 275 | 8.0 | 17.0 | 0.00 | 0.00 | 0.00 | 51 | |
| 20260507215457 | 74 | 240 | 4.0 | 17.0 | 0.00 | 0.00 | 0.00 | 52 | |
| 20260507215258 | 74 | 257 | 8.0 | 15.0 | 0.00 | 0.00 | 0.00 | 51 | |
| 20260507215255 | 74 | 257 | 8.0 | 15.0 | 0.00 | 0.00 | 0.00 | 51 | |
| 20260507215053 | 74 | 268 | 12.0 | 15.0 | 0.00 | 0.00 | 0.00 | 51 | |
| 20260507214851 | 75 | 262 | 8.0 | 15.0 | 0.00 | 0.00 | 0.00 | 51 | |
| 20260507214454 | 74 | 260 | 8.0 | 17.0 | 0.00 | 0.00 | 0.00 | 51 | |
| 20260507214244 | 74 | 261 | 6.0 | 15.0 | 0.00 | 0.00 | 0.00 | 52 | |
| 20260507214043 | 74 | 270 | 14.0 | 15.0 | 0.00 | 0.00 | 0.00 | 52 | |
| 20260507213840 | 74 | 257 | 10.0 | 15.0 | 0.00 | 0.00 | 0.00 | 52 | |
| 20260507213237 | 74 | 243 | 9.0 | 19.0 | 0.00 | 0.00 | 0.00 | 53 | |
| 20260507212831 | 75 | 265 | 9.0 | 19.0 | 0.00 | 0.00 | 0.00 | 52 | |
| 20260507212630 | 74 | 261 | 10.0 | 18.0 | 0.00 | 0.00 | 0.00 | 52 | |
| 20260507211821 | 75 | 254 | 14.0 | 16.0 | 0.00 | 0.00 | 0.00 | 51 | |
| 20260507211619 | 75 | 271 | 10.0 | 15.0 | 0.00 | 0.00 | 0.00 | 52 | |
| 20260507211416 | 74 | 254 | 6.0 | 15.0 | 0.00 | 0.00 | 0.00 | 52 | |
| 20260507211215 | 75 | 264 | 8.0 | 18.0 | 0.00 | 0.00 | 0.00 | 51 | |
| 20260507211015 | 75 | 302 | 5.0 | 18.0 | 0.00 | 0.00 | 0.00 | 53 | |
| 20260507210407 | 74 | 258 | 9.0 | 15.0 | 0.00 | 0.00 | 0.00 | 52 | |
| 20260507210004 | 75 | 265 | 12.0 | 14.0 | 0.00 | 0.00 | 0.00 | 50 | |
| 20260507205600 | 76 | 234 | 12.0 | 16.0 | 0.00 | 0.00 | 0.00 | 50 | |
| 20260507205359 | 76 | 246 | 8.0 | 16.0 | 0.00 | 0.00 | 0.00 | 51 | |
| 20260507205156 | 75 | 237 | 3.0 | 15.0 | 0.00 | 0.00 | 0.00 | 52 | |
| 20260507204954 | 75 | 277 | 13.0 | 15.0 | 0.00 | 0.00 | 0.00 | 51 | |
| 20260507204752 | 75 | 247 | 11.0 | 16.0 | 0.00 | 0.00 | 0.00 | 52 | |
| 20260507204550 | 75 | 282 | 9.0 | 16.0 | 0.00 | 0.00 | 0.00 | 51 | |
| 20260507203944 | 76 | 278 | 7.0 | 14.0 | 0.00 | 0.00 | 0.00 | 50 | |
| 20260507202532 | 75 | 268 | 14.0 | 14.0 | 0.00 | 0.00 | 0.00 | 51 | |
| 20260507202127 | 75 | 267 | 12.0 | 17.0 | 0.00 | 0.00 | 0.00 | 51 | |
| 20260507201521 | 76 | 246 | 10.0 | 14.0 | 0.00 | 0.00 | 0.00 | 51 | |
| 20260507201319 | 76 | 281 | 4.0 | 15.0 | 0.00 | 0.00 | 0.00 | 52 | |
| 20260507201115 | 75 | 289 | 9.0 | 15.0 | 0.00 | 0.00 | 0.00 | 52 | |
| 20260507200915 | 76 | 274 | 9.0 | 15.0 | 0.00 | 0.00 | 0.00 | 52 | |
| 20260507200711 | 75 | 260 | 7.0 | 17.0 | 0.00 | 0.00 | 0.00 | 51 | |
| 20260507200511 | 76 | 264 | 10.0 | 17.0 | 0.00 | 0.00 | 0.00 | 51 | |
| 20260507200309 | 75 | 253 | 9.0 | 16.0 | 0.00 | 0.00 | 0.00 | 51 | |
| 20260507200107 | 76 | 272 | 10.0 | 16.0 | 0.00 | 0.00 | 0.00 | 52 | |
| 20260507195903 | 76 | 257 | 11.0 | 16.0 | 0.00 | 0.00 | 0.00 | 51 | |
| 20260507195703 | 76 | 254 | 7.0 | 16.0 | 0.00 | 0.00 | 0.00 | 51 | |
| 20260507195501 | 75 | 250 | 8.0 | 16.0 | 0.00 | 0.00 | 0.00 | 51 | |
| 20260507195257 | 76 | 229 | 10.0 | 16.0 | 0.00 | 0.00 | 0.00 | 52 | |
| 20260507194856 | 76 | 286 | 13.0 | 16.0 | 0.00 | 0.00 | 0.00 | 51 | |
| 20260507194654 | 76 | 261 | 8.0 | 14.0 | 0.00 | 0.00 | 0.00 | 51 | |
| 20260507194451 | 76 | 258 | 11.0 | 14.0 | 0.00 | 0.00 | 0.00 | 49 | |
| 20260507194248 | 76 | 240 | 8.0 | 14.0 | 0.00 | 0.00 | 0.00 | 50 | |
| 20260507194047 | 76 | 270 | 9.0 | 14.0 | 0.00 | 0.00 | 0.00 | 51 | |
| 20260507193846 | 76 | 244 | 10.0 | 14.0 | 0.00 | 0.00 | 0.00 | 50 | |
| 20260507193441 | 76 | 298 | 7.0 | 12.0 | 0.00 | 0.00 | 0.00 | 49 | |
| 20260507193240 | 77 | 262 | 5.0 | 14.0 | 0.00 | 0.00 | 0.00 | 50 | |
| 20260507192834 | 76 | 275 | 8.0 | 14.0 | 0.00 | 0.00 | 0.00 | 51 | |
| 20260507192633 | 76 | 257 | 12.0 | 13.0 | 0.00 | 0.00 | 0.00 | 48 | |
| 20260507192436 | 77 | 309 | 4.0 | 13.0 | 0.00 | 0.00 | 0.00 | 49 | |
| 20260507192230 | 76 | 261 | 6.0 | 13.0 | 0.00 | 0.00 | 0.00 | 49 | |
| 20260507192028 | 76 | 284 | 7.0 | 13.0 | 0.00 | 0.00 | 0.00 | 49 | |
| 20260507191826 | 76 | 237 | 4.0 | 13.0 | 0.00 | 0.00 | 0.00 | 50 | |
| 20260507191622 | 75 | 260 | 7.0 | 15.0 | 0.00 | 0.00 | 0.00 | 50 | |
| 20260507191420 | 75 | 274 | 7.0 | 15.0 | 0.00 | 0.00 | 0.00 | 50 | |
| 20260507191220 | 75 | 268 | 12.0 | 11.0 | 0.00 | 0.00 | 0.00 | 50 | |
| 20260507191018 | 76 | 267 | 11.0 | 11.0 | 0.00 | 0.00 | 0.00 | 49 | |
| 20260507190209 | 76 | 261 | 8.0 | 13.0 | 0.00 | 0.00 | 0.00 | 48 | |
| 20260507190008 | 76 | 260 | 4.0 | 13.0 | 0.00 | 0.00 | 0.00 | 48 | |
| 20260507185604 | 75 | 277 | 8.0 | 11.0 | 0.00 | 0.00 | 0.00 | 48 | |
| 20260507185402 | 75 | 262 | 8.0 | 11.0 | 0.00 | 0.00 | 0.00 | 50 | |
| 20260507185201 | 75 | 268 | 10.0 | 13.0 | 0.00 | 0.00 | 0.00 | 50 | |
| 20260507184958 | 75 | 262 | 9.0 | 13.0 | 0.00 | 0.00 | 0.00 | 51 | |
| 20260507184756 | 74 | 268 | 11.0 | 11.0 | 0.00 | 0.00 | 0.00 | 49 | |
| 20260507184555 | 75 | 247 | 8.0 | 11.0 | 0.00 | 0.00 | 0.00 | 50 | |
| 20260507184151 | 75 | 271 | 6.0 | 12.0 | 0.00 | 0.00 | 0.00 | 50 | |
| 20260507183949 | 75 | 282 | 4.0 | 12.0 | 0.00 | 0.00 | 0.00 | 50 | |
| 20260507183746 | 75 | 236 | 7.0 | 11.0 | 0.00 | 0.00 | 0.00 | 51 | |
| 20260507183344 | 75 | 282 | 8.0 | 11.0 | 0.00 | 0.00 | 0.00 | 51 | |
| 20260507183141 | 74 | 264 | 10.0 | 12.0 | 0.00 | 0.00 | 0.00 | 51 | |
| 20260507182938 | 74 | 267 | 9.0 | 12.0 | 0.00 | 0.00 | 0.00 | 51 | |
| 20260507182737 | 74 | 295 | 7.0 | 9.0 | 0.00 | 0.00 | 0.00 | 51 | |
| 20260507182534 | 74 | 278 | 7.0 | 9.0 | 0.00 | 0.00 | 0.00 | 49 | |
| 20260507182333 | 74 | 293 | 5.0 | 9.0 | 0.00 | 0.00 | 0.00 | 51 | |
| 20260507182131 | 74 | 265 | 7.0 | 9.0 | 0.00 | 0.00 | 0.00 | 50 | |
| 20260507181927 | 74 | 285 | 5.0 | 9.0 | 0.00 | 0.00 | 0.00 | 50 | |
| 20260507181727 | 74 | 257 | 5.0 | 11.0 | 0.00 | 0.00 | 0.00 | 52 | |
| 20260507181525 | 74 | 244 | 8.0 | 11.0 | 0.00 | 0.00 | 0.00 | 51 | |
| 20260507181323 | 74 | 277 | 5.0 | 11.0 | 0.00 | 0.00 | 0.00 | 54 | |
| 20260507181120 | 73 | 288 | 6.0 | 11.0 | 0.00 | 0.00 | 0.00 | 53 | |
| 20260507180919 | 73 | 288 | 1.0 | 11.0 | 0.00 | 0.00 | 0.00 | 54 | |
| 20260507180717 | 73 | 288 | 9.0 | 11.0 | 0.00 | 0.00 | 0.00 | 53 | |
| 20260507180312 | 73 | 267 | 4.0 | 10.0 | 0.00 | 0.00 | 0.00 | 54 | |
| 20260507180110 | 73 | 295 | 4.0 | 10.0 | 0.00 | 0.00 | 0.00 | 52 | |
| 20260507175916 | 73 | 281 | 10.0 | 10.0 | 0.00 | 0.00 | 0.00 | 54 | |
| 20260507175505 | 73 | 285 | 6.0 | 10.0 | 0.00 | 0.00 | 0.00 | 55 | |
| 20260507175102 | 72 | 272 | 7.0 | 11.0 | 0.00 | 0.00 | 0.00 | 55 | |
| 20260507174900 | 72 | 288 | 5.0 | 11.0 | 0.00 | 0.00 | 0.00 | 55 | |
| 20260507174052 | 71 | 313 | 5.0 | 11.0 | 0.00 | 0.00 | 0.00 | 56 | |
| 20260507173850 | 72 | 274 | 8.0 | 11.0 | 0.00 | 0.00 | 0.00 | 56 | |
| 20260507173648 | 72 | 267 | 10.0 | 8.0 | 0.00 | 0.00 | 0.00 | 56 | |
| 20260507173446 | 72 | 260 | 5.0 | 8.0 | 0.00 | 0.00 | 0.00 | 57 | |
| 20260507173042 | 71 | 309 | 3.0 | 9.0 | 0.00 | 0.00 | 0.00 | 57 | |
| 20260507172840 | 71 | 281 | 7.0 | 9.0 | 0.00 | 0.00 | 0.00 | 56 | |
| 20260507172638 | 70 | 286 | 6.0 | 9.0 | 0.00 | 0.00 | 0.00 | 58 | |
| 20260507172436 | 70 | 291 | 7.0 | 9.0 | 0.00 | 0.00 | 0.00 | 57 | |
| 20260507172234 | 70 | 275 | 7.0 | 9.0 | 0.00 | 0.00 | 0.00 | 56 | |
| 20260507171830 | 70 | 272 | 8.0 | 9.0 | 0.00 | 0.00 | 0.00 | 58 | |
| 20260507171629 | 70 | 341 | 2.0 | 9.0 | 0.00 | 0.00 | 0.00 | 58 | |
| 20260507171427 | 70 | 271 | 8.0 | 9.0 | 0.00 | 0.00 | 0.00 | 58 | |
| 20260507171223 | 69 | 296 | 7.0 | 11.0 | 0.00 | 0.00 | 0.00 | 58 | |
| 20260507170820 | 69 | 274 | 7.0 | 8.0 | 0.00 | 0.00 | 0.00 | 60 | |
| 20260507170214 | 69 | 302 | 4.0 | 8.0 | 0.00 | 0.00 | 0.00 | 58 | |
| 20260507165811 | 69 | 267 | 1.0 | 9.0 | 0.00 | 0.00 | 0.00 | 60 | |
| 20260507165609 | 69 | 296 | 4.0 | 9.0 | 0.00 | 0.00 | 0.00 | 60 | |
| 20260507165407 | 68 | 275 | 6.0 | 9.0 | 0.00 | 0.00 | 0.00 | 61 | |
| 20260507165205 | 68 | 284 | 6.0 | 10.0 | 0.00 | 0.00 | 0.00 | 60 | |
| 20260507165003 | 68 | 288 | 8.0 | 10.0 | 0.00 | 0.00 | 0.00 | 61 | |
| 20260507164559 | 68 | 307 | 4.0 | 9.0 | 0.00 | 0.00 | 0.00 | 61 | |
| 20260507164358 | 68 | 277 | 9.0 | 9.0 | 0.00 | 0.00 | 0.00 | 61 | |
| 20260507164156 | 68 | 270 | 7.0 | 9.0 | 0.00 | 0.00 | 0.00 | 62 | |
| 20260507163750 | 68 | 270 | 6.0 | 9.0 | 0.00 | 0.00 | 0.00 | 63 | |
| 20260507163548 | 67 | 271 | 6.0 | 9.0 | 0.00 | 0.00 | 0.00 | 63 | |
| 20260507163348 | 67 | 288 | 9.0 | 9.0 | 0.00 | 0.00 | 0.00 | 63 | |
| 20260507163146 | 66 | 299 | 6.0 | 9.0 | 0.00 | 0.00 | 0.00 | 64 | |
| 20260507162944 | 66 | 288 | 7.0 | 9.0 | 0.00 | 0.00 | 0.00 | 63 | |
| 20260507162744 | 67 | 270 | 8.0 | 8.0 | 0.00 | 0.00 | 0.00 | 64 | |
| 20260507162338 | 67 | 274 | 7.0 | 8.0 | 0.00 | 0.00 | 0.00 | 64 | |
| 20260507162135 | 66 | 291 | 6.0 | 9.0 | 0.00 | 0.00 | 0.00 | 65 | |
| 20260507161935 | 66 | 251 | 2.0 | 9.0 | 0.00 | 0.00 | 0.00 | 65 | |
| 20260507161733 | 66 | 300 | 5.0 | 7.0 | 0.00 | 0.00 | 0.00 | 65 | |
| 20260507161529 | 66 | 270 | 3.0 | 7.0 | 0.00 | 0.00 | 0.00 | 67 | |
| 20260507161329 | 65 | 285 | 4.0 | 7.0 | 0.00 | 0.00 | 0.00 | 66 | |
| 20260507160925 | 65 | 292 | 6.0 | 7.0 | 0.00 | 0.00 | 0.00 | 66 | |
| 20260507160723 | 65 | 299 | 3.0 | 7.0 | 0.00 | 0.00 | 0.00 | 67 | |
| 20260507160522 | 65 | 291 | 6.0 | 7.0 | 0.00 | 0.00 | 0.00 | 67 | |
| 20260507160118 | 65 | 285 | 5.0 | 7.0 | 0.00 | 0.00 | 0.00 | 67 | |
| 20260507155916 | 65 | 317 | 2.0 | 7.0 | 0.00 | 0.00 | 0.00 | 68 | |
| 20260507155512 | 64 | 277 | 4.0 | 6.0 | 0.00 | 0.00 | 0.00 | 68 | |
| 20260507155310 | 64 | 241 | 0.0 | 7.0 | 0.00 | 0.00 | 0.00 | 69 | |
| 20260507155106 | 64 | 274 | 4.0 | 7.0 | 0.00 | 0.00 | 0.00 | 68 | |
| 20260507154906 | 64 | 293 | 5.0 | 7.0 | 0.00 | 0.00 | 0.00 | 68 | |
| 20260507154704 | 65 | 281 | 6.0 | 6.0 | 0.00 | 0.00 | 0.00 | 69 | |
| 20260507154503 | 64 | 265 | 3.0 | 6.0 | 0.00 | 0.00 | 0.00 | 70 | |
| 20260507154301 | 64 | 292 | 2.0 | 6.0 | 0.00 | 0.00 | 0.00 | 70 | |
| 20260507154059 | 64 | 305 | 4.0 | 6.0 | 0.00 | 0.00 | 0.00 | 70 | |
| 20260507153855 | 64 | 285 | 2.0 | 6.0 | 0.00 | 0.00 | 0.00 | 70 | |
| 20260507153453 | 63 | 298 | 3.0 | 5.0 | 0.00 | 0.00 | 0.00 | 71 | |
| 20260507153251 | 63 | 289 | 2.0 | 5.0 | 0.00 | 0.00 | 0.00 | 71 | |
| 20260507153049 | 63 | 286 | 3.0 | 5.0 | 0.00 | 0.00 | 0.00 | 72 | |
| 20260507152847 | 63 | 292 | 3.0 | 5.0 | 0.00 | 0.00 | 0.00 | 73 | |
| 20260507152646 | 63 | 274 | 5.0 | 5.0 | 0.00 | 0.00 | 0.00 | 73 | |
| 20260507152443 | 63 | 282 | 4.0 | 5.0 | 0.00 | 0.00 | 0.00 | 73 | |
| 20260507152439 | 62 | 284 | 2.0 | 4.0 | 0.00 | 0.00 | 0.00 | 74 | |
| 20260507152242 | 63 | 288 | 3.0 | 4.0 | 0.00 | 0.00 | 0.00 | 72 | |
| 20260507152038 | 63 | 279 | 3.0 | 4.0 | 0.00 | 0.00 | 0.00 | 74 | |
| 20260507151837 | 62 | 284 | 2.0 | 4.0 | 0.00 | 0.00 | 0.00 | 74 | |
| 20260507151636 | 62 | 272 | 4.0 | 3.0 | 0.00 | 0.00 | 0.00 | 74 | |
| 20260507151434 | 62 | 265 | 0.0 | 3.0 | 0.00 | 0.00 | 0.00 | 74 | |
| 20260507151230 | 62 | 282 | 2.0 | 3.0 | 0.00 | 0.00 | 0.00 | 73 | |
| 20260507151030 | 62 | 277 | 1.0 | 3.0 | 0.00 | 0.00 | 0.00 | 74 | |
| 20260507150828 | 62 | 237 | 0.0 | 3.0 | 0.00 | 0.00 | 0.00 | 74 | |
| 20260507150626 | 62 | 277 | 2.0 | 0.0 | 0.00 | 0.00 | 0.00 | 73 | |
| 20260507150424 | 62 | 77 | 0.0 | 0.0 | 0.00 | 0.00 | 0.00 | 73 | |
| 20260507150223 | 62 | 77 | 0.0 | 0.0 | 0.00 | 0.00 | 0.00 | 73 | |
| 20260507150019 | 62 | 77 | 0.0 | 0.0 | 0.00 | 0.00 | 0.00 | 74 | |
| 20260507145819 | 62 | 77 | 0.0 | 1.0 | 0.00 | 0.00 | 0.00 | 75 | |
| 20260507145616 | 62 | 77 | 0.0 | 1.0 | 0.00 | 0.00 | 0.00 | 75 | |
| 20260507145415 | 62 | 77 | 0.0 | 1.0 | 0.00 | 0.00 | 0.00 | 75 | |
| 20260507145213 | 61 | 77 | 0.0 | 3.0 | 0.00 | 0.00 | 0.00 | 76 | |
| 20260507145011 | 61 | 77 | 0.0 | 3.0 | 0.00 | 0.00 | 0.00 | 76 | |
| 20260507144809 | 61 | 87 | 0.0 | 3.0 | 0.00 | 0.00 | 0.00 | 76 | |
| 20260507144607 | 61 | 92 | 1.0 | 3.0 | 0.00 | 0.00 | 0.00 | 76 | |
| 20260507144405 | 61 | 113 | 3.0 | 3.0 | 0.00 | 0.00 | 0.00 | 76 | |
| 20260507143800 | 60 | 66 | 1.0 | 4.0 | 0.00 | 0.00 | 0.00 | 79 | |
| 20260507143356 | 59 | 64 | 0.0 | 4.0 | 0.00 | 0.00 | 0.00 | 81 | |
| 20260507142952 | 58 | 115 | 4.0 | 4.0 | 0.00 | 0.00 | 0.00 | 81 | |
| 20260507142750 | 58 | 122 | 4.0 | 4.0 | 0.00 | 0.00 | 0.00 | 81 | |
| 20260507142548 | 58 | 126 | 3.0 | 4.0 | 0.00 | 0.00 | 0.00 | 82 | |
| 20260507142346 | 58 | 112 | 3.0 | 4.0 | 0.00 | 0.00 | 0.00 | 82 | |
| 20260507142144 | 57 | 101 | 3.0 | 3.0 | 0.00 | 0.00 | 0.00 | 82 | |
| 20260507141942 | 57 | 127 | 2.0 | 3.0 | 0.00 | 0.00 | 0.00 | 83 | |
| 20260507141538 | 57 | 112 | 2.0 | 3.0 | 0.00 | 0.00 | 0.00 | 83 | |
| 20260507141337 | 57 | 97 | 2.0 | 3.0 | 0.00 | 0.00 | 0.00 | 84 | |
| 20260507141134 | 57 | 119 | 2.0 | 3.0 | 0.00 | 0.00 | 0.00 | 84 | |
| 20260507140933 | 56 | 61 | 0.0 | 3.0 | 0.00 | 0.00 | 0.00 | 85 | |
| 20260507140731 | 56 | 97 | 2.0 | 3.0 | 0.00 | 0.00 | 0.00 | 85 | |
| 20260507140529 | 56 | 116 | 3.0 | 3.0 | 0.00 | 0.00 | 0.00 | 85 | |
| 20260507140327 | 56 | 112 | 2.0 | 3.0 | 0.00 | 0.00 | 0.00 | 86 | |
| 20260507140125 | 56 | 108 | 2.0 | 2.0 | 0.00 | 0.00 | 0.00 | 86 | |
| 20260507135923 | 56 | 105 | 2.0 | 2.0 | 0.00 | 0.00 | 0.00 | 85 | |
| 20260507135721 | 56 | 116 | 2.0 | 2.0 | 0.00 | 0.00 | 0.00 | 86 | |
| 20260507135317 | 56 | 126 | 1.0 | 3.0 | 0.00 | 0.00 | 0.00 | 86 | |
| 20260507135116 | 55 | 126 | 1.0 | 3.0 | 0.00 | 0.00 | 0.00 | 86 | |
| 20260507134913 | 55 | 123 | 1.0 | 3.0 | 0.00 | 0.00 | 0.00 | 87 | |
| 20260507134711 | 55 | 125 | 1.0 | 4.0 | 0.00 | 0.00 | 0.00 | 87 | |
| 20260507134510 | 55 | 115 | 1.0 | 4.0 | 0.00 | 0.00 | 0.00 | 88 | |
| 20260507134308 | 55 | 123 | 1.0 | 3.0 | 0.00 | 0.00 | 0.00 | 88 | |
| 20260507134106 | 55 | 111 | 3.0 | 3.0 | 0.00 | 0.00 | 0.00 | 89 | |
| 20260507133904 | 54 | 116 | 1.0 | 3.0 | 0.00 | 0.00 | 0.00 | 89 | |
| 20260507133702 | 54 | 106 | 1.0 | 0.0 | 0.00 | 0.00 | 0.00 | 89 | |
| 20260507133500 | 54 | 81 | 0.0 | 0.0 | 0.00 | 0.00 | 0.00 | 89 | |
| 20260507133258 | 54 | 81 | 0.0 | 0.0 | 0.00 | 0.00 | 0.00 | 89 | |
| 20260507133057 | 54 | 81 | 0.0 | 0.0 | 0.00 | 0.00 | 0.00 | 90 | |
| 20260507132855 | 54 | 81 | 0.0 | 0.0 | 0.00 | 0.00 | 0.00 | 90 | |
| 20260507132653 | 54 | 81 | 0.0 | 0.0 | 0.00 | 0.00 | 0.00 | 90 | |
| 20260507132451 | 54 | 81 | 0.0 | 0.0 | 0.00 | 0.00 | 0.00 | 90 | |
| 20260507132249 | 54 | 81 | 0.0 | 2.0 | 0.00 | 0.00 | 0.00 | 90 | |
| 20260507131643 | 53 | 81 | 0.0 | 4.0 | 0.00 | 0.00 | 0.00 | 90 | |
| 20260507131442 | 53 | 108 | 1.0 | 4.0 | 0.00 | 0.00 | 0.00 | 90 | |
| 20260507131240 | 53 | 116 | 2.0 | 2.0 | 0.00 | 0.00 | 0.00 | 90 | |
| 20260507131038 | 53 | 111 | 1.0 | 2.0 | 0.00 | 0.00 | 0.00 | 90 | |
| 20260507130836 | 53 | 133 | 1.0 | 2.0 | 0.00 | 0.00 | 0.00 | 90 | |
| 20260507130633 | 53 | 105 | 0.0 | 2.0 | 0.00 | 0.00 | 0.00 | 90 | |
| 20260507130432 | 53 | 126 | 1.0 | 2.0 | 0.00 | 0.00 | 0.00 | 91 | |
| 20260507130230 | 53 | 119 | 1.0 | 2.0 | 0.00 | 0.00 | 0.00 | 91 | |
| 20260507130028 | 53 | 116 | 1.0 | 2.0 | 0.00 | 0.00 | 0.00 | 91 | |
| 20260507125826 | 53 | 111 | 1.0 | 2.0 | 0.00 | 0.00 | 0.00 | 91 | |
| 20260507125624 | 53 | 97 | 1.0 | 2.0 | 0.00 | 0.00 | 0.00 | 91 | |
| 20260507125422 | 53 | 109 | 2.0 | 2.0 | 0.00 | 0.00 | 0.00 | 90 | |
| 20260507125220 | 53 | 113 | 2.0 | 2.0 | 0.00 | 0.00 | 0.00 | 89 | |
| 20260507125018 | 53 | 105 | 0.0 | 2.0 | 0.00 | 0.00 | 0.00 | 89 | |
| 20260507124816 | 53 | 116 | 1.0 | 0.0 | 0.00 | 0.00 | 0.00 | 88 | |
| 20260507124211 | 54 | 87 | 0.0 | 0.0 | 0.00 | 0.00 | 0.00 | 89 | |
| 20260507124009 | 54 | 87 | 0.0 | 0.0 | 0.00 | 0.00 | 0.00 | 89 | |
| 20260507123807 | 54 | 87 | 0.0 | 0.0 | 0.00 | 0.00 | 0.00 | 89 | |
| 20260507123605 | 54 | 87 | 0.0 | 0.0 | 0.00 | 0.00 | 0.00 | 89 | |
| 20260507123403 | 54 | 87 | 0.0 | 0.0 | 0.00 | 0.00 | 0.00 | 89 | |
| 20260507123159 | 54 | 87 | 0.0 | 0.0 | 0.00 | 0.00 | 0.00 | 89 | |
| 20260507122959 | 54 | 87 | 0.0 | 0.0 | 0.00 | 0.00 | 0.00 | 89 | |
| 20260507122556 | 54 | 87 | 0.0 | 1.0 | 0.00 | 0.00 | 0.00 | 89 | |
| 20260507122353 | 54 | 87 | 0.0 | 1.0 | 0.00 | 0.00 | 0.00 | 89 | |
| 20260507122152 | 54 | 87 | 0.0 | 2.0 | 0.00 | 0.00 | 0.00 | 89 | |
| 20260507121748 | 54 | 87 | 0.0 | 0.0 | 0.00 | 0.00 | 0.00 | 89 | |
| 20260507121546 | 54 | 71 | 0.0 | 0.0 | 0.00 | 0.00 | 0.00 | 89 | |
| 20260507121344 | 54 | 71 | 0.0 | 0.0 | 0.00 | 0.00 | 0.00 | 89 | |
| 20260507121142 | 54 | 71 | 0.0 | 0.0 | 0.00 | 0.00 | 0.00 | 89 | |
| 20260507120738 | 54 | 71 | 0.0 | 3.0 | 0.00 | 0.00 | 0.00 | 90 | |
| 20260507120536 | 54 | 71 | 0.0 | 3.0 | 0.00 | 0.00 | 0.00 | 90 | |
| 20260507120334 | 54 | 71 | 0.0 | 3.0 | 0.00 | 0.00 | 0.00 | 90 | |
| 20260507120133 | 54 | 102 | 2.0 | 1.0 | 0.00 | 0.00 | 0.00 | 90 | |
| 20260507115931 | 54 | 92 | 0.0 | 1.0 | 0.00 | 0.00 | 0.00 | 90 | |
| 20260507115728 | 54 | 92 | 0.0 | 1.0 | 0.00 | 0.00 | 0.00 | 90 | |
| 20260507115527 | 54 | 70 | 0.0 | 1.0 | 0.00 | 0.00 | 0.00 | 90 | |
| 20260507115325 | 54 | 91 | 0.0 | 1.0 | 0.00 | 0.00 | 0.00 | 90 | |
| 20260507115123 | 54 | 91 | 0.0 | 0.0 | 0.00 | 0.00 | 0.00 | 90 | |
| 20260507114921 | 54 | 71 | 0.0 | 0.0 | 0.00 | 0.00 | 0.00 | 90 | |
| 20260507114719 | 54 | 71 | 0.0 | 0.0 | 0.00 | 0.00 | 0.00 | 90 | |
| 20260507114518 | 54 | 71 | 0.0 | 0.0 | 0.00 | 0.00 | 0.00 | 89 | |
| 20260507114315 | 54 | 71 | 0.0 | 0.0 | 0.00 | 0.00 | 0.00 | 89 | |
| 20260507114114 | 54 | 71 | 0.0 | 0.0 | 0.00 | 0.00 | 0.00 | 89 | |
| 20260507113911 | 54 | 71 | 0.0 | 0.0 | 0.00 | 0.00 | 0.00 | 89 | |
| 20260507113709 | 54 | 71 | 0.0 | 0.0 | 0.00 | 0.00 | 0.00 | 89 | |
| 20260507113507 | 54 | 71 | 0.0 | 0.0 | 0.00 | 0.00 | 0.00 | 89 | |
| 20260507113306 | 54 | 71 | 0.0 | 0.0 | 0.00 | 0.00 | 0.00 | 89 | |
| 20260507112902 | 54 | 71 | 0.0 | 0.0 | 0.00 | 0.00 | 0.00 | 89 | |
| 20260507112700 | 54 | 71 | 0.0 | 0.0 | 0.00 | 0.00 | 0.00 | 89 | |
| 20260507112257 | 54 | 60 | 0.0 | 0.0 | 0.00 | 0.00 | 0.00 | 89 | |
| 20260507112055 | 54 | 77 | 0.0 | 0.0 | 0.00 | 0.00 | 0.00 | 89 | |
| 20260507111651 | 54 | 77 | 0.0 | 0.0 | 0.00 | 0.00 | 0.00 | 89 | |
| 20260507111449 | 54 | 77 | 0.0 | 0.0 | 0.00 | 0.00 | 0.00 | 89 | |
| 20260507111247 | 54 | 77 | 0.0 | 0.0 | 0.00 | 0.00 | 0.00 | 89 | |
| 20260507111045 | 54 | 91 | 0.0 | 0.0 | 0.00 | 0.00 | 0.00 | 89 | |
| 20260507110843 | 54 | 91 | 0.0 | 0.0 | 0.00 | 0.00 | 0.00 | 89 | |
| 20260507110439 | 54 | 91 | 0.0 | 0.0 | 0.00 | 0.00 | 0.00 | 88 | |
| 20260507110237 | 54 | 91 | 0.0 | 0.0 | 0.00 | 0.00 | 0.00 | 88 | |
| 20260507110034 | 54 | 91 | 0.0 | 0.0 | 0.00 | 0.00 | 0.00 | 88 | |
| 20260507105430 | 54 | 91 | 0.0 | 0.0 | 0.00 | 0.00 | 0.00 | 89 | |
| 20260507105228 | 54 | 91 | 0.0 | 0.0 | 0.00 | 0.00 | 0.00 | 88 | |
| 20260507105026 | 54 | 91 | 0.0 | 0.0 | 0.00 | 0.00 | 0.00 | 88 | |
| 20260507104824 | 54 | 91 | 0.0 | 0.0 | 0.00 | 0.00 | 0.00 | 88 | |
| 20260507104420 | 54 | 91 | 0.0 | 0.0 | 0.00 | 0.00 | 0.00 | 87 | |
| 20260507104017 | 54 | 91 | 0.0 | 0.0 | 0.00 | 0.00 | 0.00 | 87 | |
| 20260507103815 | 55 | 91 | 0.0 | 0.0 | 0.00 | 0.00 | 0.00 | 87 | |
| 20260507103613 | 55 | 91 | 0.0 | 0.0 | 0.00 | 0.00 | 0.00 | 87 | |
| 20260507103411 | 55 | 91 | 0.0 | 0.0 | 0.00 | 0.00 | 0.00 | 86 | |
| 20260507103007 | 55 | 91 | 0.0 | 0.0 | 0.00 | 0.00 | 0.00 | 87 | |
| 20260507102805 | 55 | 91 | 0.0 | 0.0 | 0.00 | 0.00 | 0.00 | 87 | |
| 20260507102603 | 55 | 91 | 0.0 | 0.0 | 0.00 | 0.00 | 0.00 | 87 | |
| 20260507102158 | 55 | 91 | 0.0 | 0.0 | 0.00 | 0.00 | 0.00 | 87 | |
| 20260507101957 | 55 | 91 | 0.0 | 0.0 | 0.00 | 0.00 | 0.00 | 87 | |
| 20260507101756 | 55 | 91 | 0.0 | 0.0 | 0.00 | 0.00 | 0.00 | 87 | |
| 20260507101552 | 55 | 91 | 0.0 | 0.0 | 0.00 | 0.00 | 0.00 | 87 | |
| 20260507101350 | 55 | 91 | 0.0 | 0.0 | 0.00 | 0.00 | 0.00 | 87 | |
| 20260507101149 | 55 | 91 | 0.0 | 0.0 | 0.00 | 0.00 | 0.00 | 87 | |
| 20260507100946 | 55 | 91 | 0.0 | 0.0 | 0.00 | 0.00 | 0.00 | 87 | |
| 20260507100744 | 55 | 91 | 0.0 | 0.0 | 0.00 | 0.00 | 0.00 | 87 | |
| 20260507100543 | 55 | 91 | 0.0 | 0.0 | 0.00 | 0.00 | 0.00 | 87 | |
| 20260507100140 | 55 | 91 | 0.0 | 0.0 | 0.00 | 0.00 | 0.00 | 87 | |
| 20260507095938 | 55 | 91 | 0.0 | 0.0 | 0.00 | 0.00 | 0.00 | 87 | |
| 20260507095737 | 55 | 91 | 0.0 | 0.0 | 0.00 | 0.00 | 0.00 | 87 | |
| 20260507095535 | 55 | 91 | 0.0 | 0.0 | 0.00 | 0.00 | 0.00 | 86 | |
| 20260507095333 | 55 | 91 | 0.0 | 0.0 | 0.00 | 0.00 | 0.00 | 86 | |
| 20260507095131 | 55 | 91 | 0.0 | 0.0 | 0.00 | 0.00 | 0.00 | 86 | |
| 20260507094928 | 55 | 91 | 0.0 | 0.0 | 0.00 | 0.00 | 0.00 | 86 | |
| 20260507094725 | 55 | 91 | 0.0 | 0.0 | 0.00 | 0.00 | 0.00 | 85 | |
| 20260507094525 | 55 | 91 | 0.0 | 0.0 | 0.00 | 0.00 | 0.00 | 85 | |
| 20260507094321 | 56 | 91 | 0.0 | 0.0 | 0.00 | 0.00 | 0.00 | 85 | |
| 20260507094121 | 56 | 91 | 0.0 | 2.0 | 0.00 | 0.00 | 0.00 | 85 | |
| 20260507093918 | 56 | 91 | 0.0 | 2.0 | 0.00 | 0.00 | 0.00 | 86 | |
| 20260507093717 | 56 | 91 | 0.0 | 3.0 | 0.00 | 0.00 | 0.00 | 86 | |
| 20260507093516 | 56 | 91 | 0.0 | 3.0 | 0.00 | 0.00 | 0.00 | 85 | |
| 20260507093314 | 56 | 112 | 2.0 | 2.0 | 0.00 | 0.00 | 0.00 | 85 | |
| 20260507092910 | 56 | 116 | 2.0 | 2.0 | 0.00 | 0.00 | 0.00 | 86 | |
| 20260507092506 | 56 | 74 | 0.0 | 0.0 | 0.00 | 0.00 | 0.00 | 86 | |
| 20260507092307 | 56 | 74 | 0.0 | 2.0 | 0.00 | 0.00 | 0.00 | 86 | |
| 20260507092102 | 56 | 74 | 0.0 | 2.0 | 0.00 | 0.00 | 0.00 | 86 | |
| 20260507091658 | 56 | 74 | 0.0 | 3.0 | 0.00 | 0.00 | 0.00 | 85 | |
| 20260507091457 | 56 | 118 | 2.0 | 3.0 | 0.00 | 0.00 | 0.00 | 86 | |
| 20260507090851 | 55 | 99 | 1.0 | 3.0 | 0.00 | 0.00 | 0.00 | 87 | |
| 20260507090649 | 55 | 260 | 0.0 | 0.0 | 0.00 | 0.00 | 0.00 | 87 | |
| 20260507090447 | 55 | 260 | 0.0 | 0.0 | 0.00 | 0.00 | 0.00 | 87 | |
| 20260507090043 | 55 | 260 | 0.0 | 0.0 | 0.00 | 0.00 | 0.00 | 87 | |
| 20260507085841 | 55 | 260 | 0.0 | 0.0 | 0.00 | 0.00 | 0.00 | 87 | |
| 20260507085639 | 55 | 260 | 0.0 | 0.0 | 0.00 | 0.00 | 0.00 | 87 | |
| 20260507085437 | 55 | 260 | 0.0 | 0.0 | 0.00 | 0.00 | 0.00 | 87 | |
| 20260507085235 | 55 | 260 | 0.0 | 0.0 | 0.00 | 0.00 | 0.00 | 87 | |
| 20260507085034 | 55 | 260 | 0.0 | 0.0 | 0.00 | 0.00 | 0.00 | 87 | |
| 20260507084834 | 55 | 260 | 0.0 | 0.0 | 0.00 | 0.00 | 0.00 | 86 | |
| 20260507084630 | 55 | 260 | 0.0 | 0.0 | 0.00 | 0.00 | 0.00 | 87 | |
| 20260507084428 | 55 | 260 | 0.0 | 0.0 | 0.00 | 0.00 | 0.00 | 87 | |
| 20260507083620 | 55 | 260 | 0.0 | 0.0 | 0.00 | 0.00 | 0.00 | 87 | |
| 20260507083418 | 55 | 260 | 0.0 | 0.0 | 0.00 | 0.00 | 0.00 | 87 | |
| 20260507083216 | 55 | 260 | 0.0 | 0.0 | 0.00 | 0.00 | 0.00 | 87 | |
| 20260507083015 | 55 | 260 | 0.0 | 0.0 | 0.00 | 0.00 | 0.00 | 87 | |
| 20260507082409 | 55 | 260 | 0.0 | 0.0 | 0.00 | 0.00 | 0.00 | 87 | |
| 20260507082207 | 55 | 260 | 0.0 | 0.0 | 0.00 | 0.00 | 0.00 | 87 | |
| 20260507082003 | 55 | 260 | 0.0 | 0.0 | 0.00 | 0.00 | 0.00 | 87 | |
| 20260507081359 | 55 | 260 | 0.0 | 0.0 | 0.00 | 0.00 | 0.00 | 86 | |
| 20260507081156 | 55 | 260 | 0.0 | 0.0 | 0.00 | 0.00 | 0.00 | 87 | |
| 20260507081110 | 55 | 260 | 0.0 | 0.0 | 0.00 | 0.00 | 0.00 | 87 | |
| 20260507080955 | 55 | 260 | 0.0 | 0.0 | 0.00 | 0.00 | 0.00 | 87 | |
| 20260507080754 | 56 | 260 | 0.0 | 0.0 | 0.00 | 0.00 | 0.00 | 87 | |
| 20260507080552 | 55 | 260 | 0.0 | 0.0 | 0.00 | 0.00 | 0.00 | 87 | |
| 20260507080350 | 55 | 260 | 0.0 | 0.0 | 0.00 | 0.00 | 0.00 | 87 | |
| 20260507080148 | 55 | 260 | 0.0 | 0.0 | 0.00 | 0.00 | 0.00 | 87 | |
| 20260507075946 | 55 | 260 | 0.0 | 0.0 | 0.00 | 0.00 | 0.00 | 87 | |
| 20260507075742 | 55 | 260 | 0.0 | 0.0 | 0.00 | 0.00 | 0.00 | 87 | |
| 20260507075138 | 55 | 260 | 0.0 | 0.0 | 0.00 | 0.00 | 0.00 | 87 | |
| 20260507074937 | 55 | 260 | 0.0 | 0.0 | 0.00 | 0.00 | 0.00 | 87 | |
| 20260507074735 | 55 | 260 | 0.0 | 0.0 | 0.00 | 0.00 | 0.00 | 87 | |
| 20260507074533 | 55 | 260 | 0.0 | 0.0 | 0.00 | 0.00 | 0.00 | 87 | |
| 20260507074330 | 55 | 260 | 0.0 | 0.0 | 0.00 | 0.00 | 0.00 | 86 | |
| 20260507074129 | 55 | 260 | 0.0 | 0.0 | 0.00 | 0.00 | 0.00 | 86 | |
| 20260507073927 | 55 | 260 | 0.0 | 0.0 | 0.00 | 0.00 | 0.00 | 86 | |
| 20260507073725 | 55 | 260 | 0.0 | 0.0 | 0.00 | 0.00 | 0.00 | 86 | |
| 20260507073523 | 55 | 260 | 0.0 | 0.0 | 0.00 | 0.00 | 0.00 | 86 | |
| 20260507073321 | 55 | 260 | 0.0 | 0.0 | 0.00 | 0.00 | 0.00 | 86 | |
| 20260507072917 | 55 | 260 | 0.0 | 0.0 | 0.00 | 0.00 | 0.00 | 86 | |
| 20260507072715 | 55 | 260 | 0.0 | 0.0 | 0.00 | 0.00 | 0.00 | 86 | |
| 20260507072514 | 56 | 260 | 0.0 | 0.0 | 0.00 | 0.00 | 0.00 | 86 | |
| 20260507072312 | 56 | 260 | 0.0 | 0.0 | 0.00 | 0.00 | 0.00 | 86 | |
| 20260507072110 | 56 | 260 | 0.0 | 0.0 | 0.00 | 0.00 | 0.00 | 86 | |
| 20260507071908 | 56 | 260 | 0.0 | 0.0 | 0.00 | 0.00 | 0.00 | 85 | |
| 20260507071706 | 56 | 260 | 0.0 | 0.0 | 0.00 | 0.00 | 0.00 | 85 | |
| 20260507071504 | 56 | 260 | 0.0 | 0.0 | 0.00 | 0.00 | 0.00 | 85 | |
| 20260507071302 | 56 | 260 | 0.0 | 0.0 | 0.00 | 0.00 | 0.00 | 86 | |
| 20260507071101 | 56 | 260 | 0.0 | 0.0 | 0.00 | 0.00 | 0.00 | 86 | |
| 20260507070858 | 56 | 260 | 0.0 | 0.0 | 0.00 | 0.00 | 0.00 | 85 | |
| 20260507070657 | 56 | 260 | 0.0 | 0.0 | 0.00 | 0.00 | 0.00 | 86 | |
| 20260507070455 | 56 | 260 | 0.0 | 0.0 | 0.00 | 0.00 | 0.00 | 86 | |
| 20260507070253 | 56 | 260 | 0.0 | 0.0 | 0.00 | 0.00 | 0.00 | 86 | |
| 20260507070051 | 56 | 260 | 0.0 | 0.0 | 0.00 | 0.00 | 0.00 | 85 | |
| 20260507065647 | 56 | 260 | 0.0 | 0.0 | 0.00 | 0.00 | 0.00 | 85 | |
| 20260507065243 | 56 | 260 | 0.0 | 0.0 | 0.00 | 0.00 | 0.00 | 85 | |
| 20260507065041 | 56 | 260 | 0.0 | 0.0 | 0.00 | 0.00 | 0.00 | 86 | |
| 20260507064637 | 56 | 260 | 0.0 | 0.0 | 0.00 | 0.00 | 0.00 | 86 | |
| 20260507064436 | 56 | 260 | 0.0 | 0.0 | 0.00 | 0.00 | 0.00 | 86 | |
| 20260507064234 | 56 | 260 | 0.0 | 0.0 | 0.00 | 0.00 | 0.00 | 86 | |
| 20260507064032 | 56 | 260 | 0.0 | 0.0 | 0.00 | 0.00 | 0.00 | 86 | |
| 20260507063830 | 56 | 260 | 0.0 | 0.0 | 0.00 | 0.00 | 0.00 | 86 | |
| 20260507063628 | 56 | 260 | 0.0 | 0.0 | 0.00 | 0.00 | 0.00 | 86 | |
| 20260507063426 | 56 | 260 | 0.0 | 0.0 | 0.00 | 0.00 | 0.00 | 86 | |
| 20260507063022 | 56 | 260 | 0.0 | 0.0 | 0.00 | 0.00 | 0.00 | 86 | |
| 20260507062820 | 56 | 260 | 0.0 | 0.0 | 0.00 | 0.00 | 0.00 | 86 | |
| 20260507062619 | 56 | 260 | 0.0 | 0.0 | 0.00 | 0.00 | 0.00 | 86 | |
| 20260507062417 | 56 | 260 | 0.0 | 0.0 | 0.00 | 0.00 | 0.00 | 86 | |
| 20260507062215 | 56 | 260 | 0.0 | 0.0 | 0.00 | 0.00 | 0.00 | 85 | |
| 20260507062013 | 56 | 260 | 0.0 | 0.0 | 0.00 | 0.00 | 0.00 | 85 | |
| 20260507061811 | 56 | 260 | 0.0 | 0.0 | 0.00 | 0.00 | 0.00 | 85 | |
| 20260507061609 | 56 | 260 | 0.0 | 0.0 | 0.00 | 0.00 | 0.00 | 85 | |
| 20260507061407 | 56 | 260 | 0.0 | 0.0 | 0.00 | 0.00 | 0.00 | 85 | |
| 20260507061205 | 56 | 260 | 0.0 | 0.0 | 0.00 | 0.00 | 0.00 | 85 | |
| 20260507061003 | 56 | 260 | 0.0 | 0.0 | 0.00 | 0.00 | 0.00 | 85 | |
| 20260507060801 | 57 | 260 | 0.0 | 0.0 | 0.00 | 0.00 | 0.00 | 85 | |
| 20260507060559 | 57 | 260 | 0.0 | 0.0 | 0.00 | 0.00 | 0.00 | 85 | |
| 20260507060357 | 57 | 260 | 0.0 | 0.0 | 0.00 | 0.00 | 0.00 | 85 | |
| 20260507060155 | 57 | 260 | 0.0 | 0.0 | 0.00 | 0.00 | 0.00 | 85 | |
| 20260507055952 | 57 | 260 | 0.0 | 0.0 | 0.00 | 0.00 | 0.00 | 85 | |
| 20260507055752 | 57 | 260 | 0.0 | 0.0 | 0.00 | 0.00 | 0.00 | 85 | |
| 20260507055550 | 57 | 260 | 0.0 | 0.0 | 0.00 | 0.00 | 0.00 | 85 | |
| 20260507055348 | 57 | 260 | 0.0 | 0.0 | 0.00 | 0.00 | 0.00 | 85 | |
| 20260507055146 | 57 | 260 | 0.0 | 0.0 | 0.00 | 0.00 | 0.00 | 85 | |
| 20260507054942 | 57 | 260 | 0.0 | 0.0 | 0.00 | 0.00 | 0.00 | 85 | |
| 20260507054742 | 57 | 260 | 0.0 | 0.0 | 0.00 | 0.00 | 0.00 | 85 | |
| 20260507054540 | 57 | 260 | 0.0 | 0.0 | 0.00 | 0.00 | 0.00 | 85 | |
| 20260507054338 | 57 | 260 | 0.0 | 0.0 | 0.00 | 0.00 | 0.00 | 85 | |
| 20260507054135 | 57 | 260 | 0.0 | 0.0 | 0.00 | 0.00 | 0.00 | 85 | |
| 20260507053934 | 57 | 260 | 0.0 | 0.0 | 0.00 | 0.00 | 0.00 | 85 | |
| 20260507053733 | 57 | 260 | 0.0 | 0.0 | 0.00 | 0.00 | 0.00 | 85 | |
| 20260507053531 | 57 | 260 | 0.0 | 0.0 | 0.00 | 0.00 | 0.00 | 84 | |
| 20260507053329 | 57 | 260 | 0.0 | 0.0 | 0.00 | 0.00 | 0.00 | 84 | |
| 20260507053127 | 58 | 260 | 0.0 | 0.0 | 0.00 | 0.00 | 0.00 | 84 | |
| 20260507052925 | 57 | 260 | 0.0 | 0.0 | 0.00 | 0.00 | 0.00 | 84 | |
| 20260507052723 | 57 | 260 | 0.0 | 0.0 | 0.00 | 0.00 | 0.00 | 84 | |
| 20260507052522 | 57 | 260 | 0.0 | 0.0 | 0.00 | 0.00 | 0.00 | 83 | |
| 20260507052319 | 58 | 260 | 0.0 | 0.0 | 0.00 | 0.00 | 0.00 | 83 | |
| 20260507052118 | 58 | 260 | 0.0 | 0.0 | 0.00 | 0.00 | 0.00 | 83 | |
| 20260507051915 | 58 | 260 | 0.0 | 0.0 | 0.00 | 0.00 | 0.00 | 82 | |
| 20260507051714 | 58 | 260 | 0.0 | 0.0 | 0.00 | 0.00 | 0.00 | 83 | |
| 20260507051512 | 58 | 260 | 0.0 | 0.0 | 0.00 | 0.00 | 0.00 | 83 | |
| 20260507051108 | 58 | 260 | 0.0 | 0.0 | 0.00 | 0.00 | 0.00 | 83 | |
| 20260507050906 | 59 | 260 | 0.0 | 0.0 | 0.00 | 0.00 | 0.00 | 83 | |
| 20260507050704 | 59 | 260 | 0.0 | 0.0 | 0.00 | 0.00 | 0.00 | 83 | |
| 20260507050502 | 59 | 260 | 0.0 | 0.0 | 0.00 | 0.00 | 0.00 | 83 | |
| 20260507050300 | 59 | 260 | 0.0 | 0.0 | 0.00 | 0.00 | 0.00 | 83 | |
| 20260507050058 | 59 | 260 | 0.0 | 0.0 | 0.00 | 0.00 | 0.00 | 82 | |
| 20260507045855 | 59 | 260 | 0.0 | 0.0 | 0.00 | 0.00 | 0.00 | 82 | |
| 20260507045655 | 59 | 260 | 0.0 | 0.0 | 0.00 | 0.00 | 0.00 | 82 | |
| 20260507045452 | 59 | 260 | 0.0 | 0.0 | 0.00 | 0.00 | 0.00 | 82 | |
| 20260507045250 | 59 | 260 | 0.0 | 0.0 | 0.00 | 0.00 | 0.00 | 82 | |
| 20260507045048 | 59 | 260 | 0.0 | 0.0 | 0.00 | 0.00 | 0.00 | 81 | |
| 20260507044847 | 59 | 260 | 0.0 | 0.0 | 0.00 | 0.00 | 0.00 | 81 | |
| 20260507044443 | 59 | 260 | 0.0 | 0.0 | 0.00 | 0.00 | 0.00 | 81 | |
| 20260507044241 | 59 | 260 | 0.0 | 0.0 | 0.00 | 0.00 | 0.00 | 81 | |
| 20260507043635 | 60 | 260 | 0.0 | 0.0 | 0.00 | 0.00 | 0.00 | 80 | |
| 20260507043434 | 60 | 260 | 0.0 | 0.0 | 0.00 | 0.00 | 0.00 | 80 | |
| 20260507043030 | 60 | 260 | 0.0 | 0.0 | 0.00 | 0.00 | 0.00 | 80 | |
| 20260507042828 | 60 | 260 | 0.0 | 0.0 | 0.00 | 0.00 | 0.00 | 80 | |
| 20260507042626 | 60 | 260 | 0.0 | 0.0 | 0.00 | 0.00 | 0.00 | 79 | |
| 20260507042422 | 60 | 260 | 0.0 | 0.0 | 0.00 | 0.00 | 0.00 | 79 | |
| 20260507042222 | 60 | 260 | 0.0 | 0.0 | 0.00 | 0.00 | 0.00 | 79 | |
| 20260507042020 | 60 | 260 | 0.0 | 0.0 | 0.00 | 0.00 | 0.00 | 79 | |
| 20260507041818 | 60 | 260 | 0.0 | 2.0 | 0.00 | 0.00 | 0.00 | 79 | |
| 20260507041616 | 60 | 260 | 0.0 | 2.0 | 0.00 | 0.00 | 0.00 | 79 | |
| 20260507041414 | 60 | 260 | 0.0 | 2.0 | 0.00 | 0.00 | 0.00 | 79 | |
| 20260507041213 | 60 | 260 | 0.0 | 2.0 | 0.00 | 0.00 | 0.00 | 79 | |
| 20260507041011 | 60 | 260 | 0.0 | 2.0 | 0.00 | 0.00 | 0.00 | 79 | |
| 20260507040809 | 61 | 288 | 0.0 | 2.0 | 0.00 | 0.00 | 0.00 | 79 | |
| 20260507040607 | 61 | 310 | 0.0 | 2.0 | 0.00 | 0.00 | 0.00 | 79 | |
| 20260507040405 | 61 | 302 | 1.0 | 2.0 | 0.00 | 0.00 | 0.00 | 78 | |
| 20260507040201 | 61 | 302 | 2.0 | 1.0 | 0.00 | 0.00 | 0.00 | 78 | |
| 20260507040001 | 61 | 293 | 0.0 | 1.0 | 0.00 | 0.00 | 0.00 | 78 | |
| 20260507035759 | 61 | 305 | 0.0 | 2.0 | 0.00 | 0.00 | 0.00 | 77 | |
| 20260507035557 | 61 | 298 | 0.0 | 2.0 | 0.00 | 0.00 | 0.00 | 77 | |
| 20260507035355 | 61 | 298 | 0.0 | 2.0 | 0.00 | 0.00 | 0.00 | 77 | |
| 20260507034952 | 61 | 261 | 0.0 | 2.0 | 0.00 | 0.00 | 0.00 | 76 | |
| 20260507034750 | 61 | 261 | 0.0 | 1.0 | 0.00 | 0.00 | 0.00 | 75 | |
| 20260507034548 | 61 | 274 | 0.0 | 1.0 | 0.00 | 0.00 | 0.00 | 75 | |
| 20260507034347 | 62 | 274 | 0.0 | 1.0 | 0.00 | 0.00 | 0.00 | 75 | |
| 20260507033942 | 62 | 296 | 1.0 | 1.0 | 0.00 | 0.00 | 0.00 | 75 | |
| 20260507033740 | 62 | 257 | 0.0 | 0.0 | 0.00 | 0.00 | 0.00 | 75 | |
| 20260507033538 | 62 | 257 | 0.0 | 0.0 | 0.00 | 0.00 | 0.00 | 75 | |
| 20260507033336 | 62 | 257 | 0.0 | 0.0 | 0.00 | 0.00 | 0.00 | 75 | |
| 20260507033134 | 62 | 257 | 0.0 | 2.0 | 0.00 | 0.00 | 0.00 | 75 | |
| 20260507032932 | 62 | 257 | 0.0 | 2.0 | 0.00 | 0.00 | 0.00 | 74 | |
| 20260507032730 | 62 | 257 | 0.0 | 3.0 | 0.00 | 0.00 | 0.00 | 75 | |
| 20260507032529 | 62 | 257 | 0.0 | 3.0 | 0.00 | 0.00 | 0.00 | 75 | |
| 20260507032327 | 62 | 286 | 2.0 | 3.0 | 0.00 | 0.00 | 0.00 | 75 | |
| 20260507032125 | 62 | 288 | 1.0 | 1.0 | 0.00 | 0.00 | 0.00 | 74 | |
| 20260507031923 | 62 | 262 | 0.0 | 1.0 | 0.00 | 0.00 | 0.00 | 74 | |
| 20260507031721 | 62 | 240 | 0.0 | 0.0 | 0.00 | 0.00 | 0.00 | 74 | |
| 20260507031519 | 62 | 239 | 0.0 | 0.0 | 0.00 | 0.00 | 0.00 | 73 | |
| 20260507031315 | 62 | 239 | 0.0 | 0.0 | 0.00 | 0.00 | 0.00 | 73 | |
| 20260507031115 | 63 | 239 | 0.0 | 0.0 | 0.00 | 0.00 | 0.00 | 72 | |
| 20260507030913 | 63 | 239 | 0.0 | 0.0 | 0.00 | 0.00 | 0.00 | 72 | |
| 20260507030712 | 63 | 239 | 0.0 | 2.0 | 0.00 | 0.00 | 0.00 | 72 | |
| 20260507030510 | 63 | 239 | 0.0 | 2.0 | 0.00 | 0.00 | 0.00 | 71 | |
| 20260507025903 | 63 | 282 | 2.0 | 2.0 | 0.00 | 0.00 | 0.00 | 71 | |
| 20260507025702 | 63 | 279 | 1.0 | 0.0 | 0.00 | 0.00 | 0.00 | 71 | |
| 20260507025055 | 64 | 253 | 0.0 | 0.0 | 0.00 | 0.00 | 0.00 | 69 | |
| 20260507024854 | 64 | 253 | 0.0 | 0.0 | 0.00 | 0.00 | 0.00 | 68 | |
| 20260507024651 | 64 | 253 | 0.0 | 0.0 | 0.00 | 0.00 | 0.00 | 68 | |
| 20260507024249 | 65 | 253 | 0.0 | 0.0 | 0.00 | 0.00 | 0.00 | 67 | |
| 20260507024046 | 65 | 253 | 0.0 | 0.0 | 0.00 | 0.00 | 0.00 | 67 | |
| 20260507023845 | 65 | 253 | 0.0 | 0.0 | 0.00 | 0.00 | 0.00 | 67 | |
| 20260507023441 | 65 | 253 | 0.0 | 4.0 | 0.00 | 0.00 | 0.00 | 67 | |
| 20260507023239 | 65 | 253 | 0.0 | 6.0 | 0.00 | 0.00 | 0.00 | 67 | |
| 20260507023037 | 65 | 284 | 2.0 | 6.0 | 0.00 | 0.00 | 0.00 | 67 | |
| 20260507022432 | 65 | 274 | 4.0 | 6.0 | 0.00 | 0.00 | 0.00 | 66 | |
| 20260507022028 | 66 | 293 | 4.0 | 7.0 | 0.00 | 0.00 | 0.00 | 65 | |
| 20260507021624 | 66 | 286 | 4.0 | 6.0 | 0.00 | 0.00 | 0.00 | 64 | |
| 20260507021422 | 66 | 300 | 3.0 | 6.0 | 0.00 | 0.00 | 0.00 | 63 | |
| 20260507021220 | 66 | 275 | 4.0 | 7.0 | 0.00 | 0.00 | 0.00 | 63 | |
| 20260507021018 | 66 | 289 | 4.0 | 7.0 | 0.00 | 0.00 | 0.00 | 63 | |
| 20260507020816 | 66 | 272 | 5.0 | 8.0 | 0.00 | 0.00 | 0.00 | 62 | |
| 20260507020615 | 66 | 281 | 2.0 | 8.0 | 0.00 | 0.00 | 0.00 | 62 | |
| 20260507020412 | 66 | 303 | 3.0 | 8.0 | 0.00 | 0.00 | 0.00 | 62 | |
| 20260507020211 | 66 | 274 | 6.0 | 8.0 | 0.00 | 0.00 | 0.00 | 62 | |
| 20260507020009 | 66 | 278 | 6.0 | 8.0 | 0.00 | 0.00 | 0.00 | 62 | |
| 20260507015805 | 67 | 265 | 7.0 | 8.0 | 0.00 | 0.00 | 0.00 | 62 | |
| 20260507015603 | 67 | 267 | 5.0 | 8.0 | 0.00 | 0.00 | 0.00 | 62 | |
| 20260507015401 | 66 | 278 | 6.0 | 8.0 | 0.00 | 0.00 | 0.00 | 61 | |
| 20260507015159 | 67 | 274 | 7.0 | 7.0 | 0.00 | 0.00 | 0.00 | 60 | |
| 20260507014957 | 67 | 307 | 3.0 | 7.0 | 0.00 | 0.00 | 0.00 | 61 | |
| 20260507014757 | 67 | 254 | 5.0 | 6.0 | 0.00 | 0.00 | 0.00 | 60 | |
| 20260507014555 | 67 | 270 | 5.0 | 6.0 | 0.00 | 0.00 | 0.00 | 61 | |
| 20260507014353 | 67 | 279 | 3.0 | 6.0 | 0.00 | 0.00 | 0.00 | 60 | |
| 20260507014151 | 67 | 246 | 3.0 | 10.0 | 0.00 | 0.00 | 0.00 | 61 | |
| 20260507013948 | 67 | 277 | 5.0 | 10.0 | 0.00 | 0.00 | 0.00 | 61 | |
| 20260507013748 | 67 | 278 | 5.0 | 9.0 | 0.00 | 0.00 | 0.00 | 60 | |
| 20260507013546 | 67 | 279 | 4.0 | 9.0 | 0.00 | 0.00 | 0.00 | 59 | |
| 20260507013344 | 67 | 271 | 8.0 | 9.0 | 0.00 | 0.00 | 0.00 | 59 | |
| 20260507012940 | 68 | 309 | 3.0 | 9.0 | 0.00 | 0.00 | 0.00 | 59 |